Dewpoint
61 62 62 63 64 67 69 70 72 72 71 71 68 72 70 69 68 69 70 71 70 70 71 67 67 67 66 70 71 71 72 70 72 67 66 68 66 65 67 67 66 66 66
60 61 61 63 63 66 68 70 71 72 73 71 70 72 70 64 65 69 70 71 70 72 71 72 69 69 66 71 73 76 74 72 71 72 67 65 66 72 70 66 66 67 66
58 59 61 62 63 66 67 69 71 72 72 73 75 72 70 68 66 68 68 69 70 70 71 72 71 71 70 66 75 76 76 75 75 75 70 64 70 65 68 68 64 68 66
57 60 60 61 61 64 66 69 71 71 73 73 74 73 70 70 67 66 68 66 70 70 69 70 71 72 71 77 78 77 77 77 71 69 75 73 72 68 61 61 68 67 66
55 58 59 61 62 62 63 67 71 72 71 72 73 74 71 74 71 65 71 70 70 71 69 70 71 72 77 77 77 76 74 74 71 74 75 73 73 74 68 60 63 68 68
54 57 59 61 62 62 62 66 69 71 71 71 72 72 71 72 70 67 66 65 67 68 70 71 73 76 77 77 75 74 75 75 76 76 76 74 70 67 64 60 65 66 66
53 56 58 60 62 64 63 66 68 70 70 70 69 69 70 71 70 69 65 66 67 66 69 74 75 73 76 75 77 76 76 75 74 74 72 70 71 65 65 69 70 65 69
51 55 58 61 62 64 64 66 68 70 70 70 71 71 70 66 65 69 66 69 71 71 73 73 75 75 77 76 77 75 74 74 72 72 72 68 65 65 66 69 68 66 70
52 55 58 60 62 64 65 66 69 69 70 69 72 71 70 68 69 71 72 72 74 73 75 74 75 76 76 75 75 72 71 71 68 66 69 67 66 71 68 68 67 66 66
53 55 58 59 62 63 64 65 68 68 70 68 68 69 69 70 72 71 72 74 74 75 75 74 75 75 75 73 72 68 70 69 66 65 68 68 64 59 60 60 60 62 62
53 54 58 59 60 62 63 64 66 66 69 69 68 68 68 68 69 71 74 74 74 74 75 76 74 73 72 71 71 70 69 68 67 66 65 65 67 59 57 57 58 58 60
53 55 58 59 60 61 61 63 65 64 64 68 70 68 68 68 69 73 74 74 74 75 75 74 74 71 70 70 69 67 66 65 64 64 64 63 60 64 65 57 64 61 63
53 55 56 58 60 61 62 62 64 67 65 70 68 68 67 68 70 74 74 74 74 75 73 72 71 71 69 69 68 67 65 63 62 62 63 62 62 62 58 59 56 54 53
55 54 54 57 60 63 64 66 64 68 67 68 67 69 69 71 72 73 73 73 74 73 72 71 71 68 67 66 65 65 64 63 62 62 62 62 62 62 61 57 61 60 54
53 54 54 58 63 66 67 68 64 69 67 69 69 71 73 74 74 73 72 73 72 72 71 70 68 66 64 60 64 63 62 62 61 60 58 58 61 61 60 54 60 64 57
53 54 55 60 64 66 71 70 69 69 70 73 71 76 76 76 74 72 73 73 71 71 70 68 66 64 58 63 64 63 60 61 61 59 59 60 60 59 61 61 60 59 58
52 52 54 59 63 66 70 69 71 71 74 76 75 76 76 75 73 73 73 71 70 69 68 67 65 62 62 61 61 61 55 54 57 58 55 50 53 60 58 60 59 58 57
50 55 54 60 63 65 67 69 70 75 77 76 77 77 74 72 73 71 71 70 68 68 66 65 64 62 60 60 59 59 55 57 57 57 57 58 59 57 57 54 53 52 50
49 50 52 57 67 69 72 73 74 77 77 76 77 75 73 71 71 71 70 68 66 66 64 63 63 61 61 58 58 59 53 54 56 56 58 55 53 56 57 55 53 53 53
49 50 51 55 61 65 68 74 76 77 77 78 76 74 73 72 71 72 70 69 67 63 60 62 61 59 60 57 57 57 50 53 51 54 56 56 53 55 55 55 53 52 50
50 50 53 56 64 70 71 75 76 77 78 78 75 75 74 73 73 72 71 70 67 66 65 61 59 57 58 57 56 56 55 50 51 50 49 47 53 53 51 52 50 48 51
50 50 56 63 69 72 74 76 77 79 79 78 76 75 74 72 71 72 70 70 69 67 64 62 57 54 58 55 54 54 55 56 52 52 50 50 53 52 52 51 49 51 51
49 50 55 65 71 74 75 76 78 79 79 75 74 73 73 73 71 70 70 65 67 61 61 57 53 52 52 52 54 54 53 53 54 50 52 51 52 52 49 50 51 53 45
50 51 55 65 71 74 77 77 78 78 77 74 72 72 72 71 70 66 65 62 61 59 58 56 53 52 52 49 49 48 49 52 53 52 48 50 52 51 51 50 50 47 46
53 55 59 67 72 75 76 74 77 77 73 73 72 71 70 69 68 66 62 59 63 58 56 55 55 53 52 51 49 47 48 48 49 53 50 48 49 49 47 46 47 48 47
62 60 64 67 73 73 73 75 75 76 71 71 71 70 69 68 66 61 59 49 52 51 50 51 52 55 52 48 46 47 48 48 48 50 50 49 49 48 45 45 45 47 48
Lifted_Index
-4 -4 -4 -4 -3 -3 -3 -2 -2 -2 -1 -1 -1 -1 -1 -0 1 1 1 1 -0 -1 -1 -1 -1 -0 -0 -1 -2 -4 -4 -4 -4 -4 -4 -4 -3 -3 -3 -3 -3 -3 -3
-4 -4 -4 -4 -3 -3 -3 -3 -2 -2 -2 -2 -2 -2 -1 -0 0 1 1 1 -0 -1 -1 -1 -1 -1 -1 -1 -3 -4 -4 -4 -5 -5 -4 -4 -4 -3 -3 -3 -3 -3 -3
-4 -4 -4 -4 -3 -3 -3 -3 -2 -2 -2 -2 -2 -2 -1 -0 0 0 0 0 -0 -1 -1 -1 -1 -2 -2 -2 -4 -5 -5 -5 -5 -5 -4 -4 -4 -4 -3 -3 -3 -3 -3
-4 -4 -4 -4 -3 -3 -2 -2 -2 -2 -2 -2 -2 -2 -1 -1 -0 -0 -0 -1 -1 -1 -1 -1 -1 -2 -3 -4 -4 -5 -5 -4 -4 -4 -4 -4 -4 -4 -3 -3 -3 -3 -2
-3 -4 -4 -4 -3 -2 -2 -2 -2 -2 -2 -2 -2 -2 -2 -1 -0 -0 -1 -1 -1 -1 -1 -1 -2 -3 -4 -4 -5 -4 -4 -4 -4 -4 -4 -4 -4 -4 -3 -3 -3 -3 -3
-3 -3 -4 -4 -3 -3 -2 -2 -2 -2 -2 -2 -2 -2 -2 -2 -1 -1 -1 -1 -1 -1 -2 -2 -3 -4 -5 -5 -4 -4 -4 -4 -4 -4 -4 -4 -4 -3 -3 -2 -3 -3 -3
-3 -3 -4 -4 -4 -3 -3 -2 -2 -2 -2 -2 -2 -2 -2 -2 -1 -1 -1 -1 -1 -2 -3 -4 -4 -4 -4 -4 -4 -4 -3 -3 -3 -3 -3 -3 -2 -2 -2 -2 -3 -3 -3
-3 -3 -4 -4 -4 -4 -3 -3 -3 -3 -2 -2 -2 -2 -2 -2 -2 -2 -2 -2 -3 -3 -4 -4 -4 -4 -4 -4 -3 -3 -2 -2 -2 -2 -1 -1 -1 -1 -1 -2 -2 -2 -2
-3 -3 -4 -4 -4 -4 -4 -4 -4 -3 -3 -2 -2 -2 -2 -2 -2 -2 -3 -3 -4 -4 -4 -4 -4 -4 -3 -3 -3 -2 -1 -0 0 0 0 0 0 0 0 -0 -1 -1 -1
-3 -3 -4 -4 -4 -4 -4 -4 -5 -4 -3 -2 -2 -2 -2 -2 -2 -2 -3 -4 -4 -5 -5 -4 -4 -3 -2 -2 -1 0 1 1 2 2 2 2 3 3 3 3 2 2 1
-2 -3 -4 -4 -4 -4 -4 -5 -5 -4 -3 -2 -1 -1 -1 -1 -2 -3 -4 -4 -4 -5 -4 -4 -3 -2 -1 -0 1 1 2 3 3 4 4 5 5 5 5 5 4 4 3
-2 -3 -3 -4 -4 -4 -4 -5 -5 -5 -4 -3 -2 -2 -1 -1 -3 -4 -5 -4 -4 -4 -3 -2 -1 0 1 1 2 3 4 5 5 6 6 7 7 7 7 7 6 6 5
-2 -2 -3 -3 -4 -4 -4 -5 -6 -6 -5 -4 -4 -3 -3 -3 -4 -5 -4 -4 -3 -3 -2 -0 1 2 2 3 3 4 5 6 7 7 7 8 8 8 8 8 8 8 8
-2 -2 -3 -3 -4 -4 -5 -5 -5 -6 -6 -6 -5 -5 -5 -5 -5 -4 -3 -3 -2 -1 0 1 2 3 4 4 5 5 6 7 8 8 9 9 9 9 9 9 9 8 9
-2 -2 -3 -3 -4 -5 -5 -5 -5 -6 -6 -6 -6 -6 -6 -6 -5 -3 -2 -2 -1 0 1 2 3 4 5 6 6 6 7 7 8 9 10 10 10 11 11 10 9 9 8
-2 -2 -2 -3 -4 -5 -6 -6 -5 -5 -6 -6 -6 -6 -6 -5 -4 -2 -2 -1 -0 1 2 3 4 6 7 7 7 7 8 8 9 9 10 11 11 11 11 11 11 10 10
-1 -1 -2 -3 -4 -5 -6 -6 -6 -6 -6 -7 -7 -6 -6 -4 -3 -2 -1 -0 1 2 3 4 5 7 8 8 9 9 9 10 10 10 10 11 11 10 11 11 12 12 12
-0 -1 -2 -3 -4 -5 -6 -6 -6 -6 -7 -7 -7 -6 -5 -3 -2 -1 -1 0 2 3 4 5 6 7 9 10 10 11 11 11 11 11 11 11 11 11 11 11 12 13 13
0 -0 -1 -3 -4 -5 -6 -7 -7 -7 -7 -7 -7 -5 -3 -2 -1 -1 -0 1 2 4 5 6 7 8 10 11 12 12 12 11 11 11 12 12 13 14 13 12 12 12 13
-0 -0 -1 -2 -4 -5 -6 -7 -8 -8 -8 -7 -6 -4 -3 -2 -2 -1 -0 2 3 4 6 7 8 10 11 12 13 13 12 12 12 12 12 13 15 15 15 13 13 13 13
-1 -0 -1 -2 -4 -6 -7 -8 -8 -8 -8 -7 -5 -4 -3 -2 -2 -2 -0 2 3 5 6 8 10 11 12 13 13 13 12 12 11 12 13 14 16 16 16 15 15 14 14
-1 -1 -1 -3 -5 -7 -8 -8 -8 -8 -8 -6 -5 -4 -3 -3 -3 -2 0 2 3 5 6 8 10 11 12 13 14 13 12 11 11 11 12 14 15 16 16 16 16 15 14
-1 -1 -2 -4 -6 -7 -8 -9 -9 -8 -7 -5 -4 -3 -3 -3 -3 -1 1 2 4 5 6 8 10 11 12 13 14 13 13 12 11 11 13 14 14 14 15 15 15 14 13
-1 -2 -3 -5 -7 -8 -8 -9 -9 -8 -7 -5 -3 -3 -3 -3 -2 -0 2 3 4 5 6 7 9 10 11 12 13 13 13 12 11 12 13 13 13 13 13 13 13 13 13
-3 -3 -3 -5 -7 -8 -8 -8 -8 -8 -6 -5 -3 -3 -3 -3 -2 1 3 4 5 5 6 7 8 9 9 11 12 13 13 12 11 11 12 11 11 11 11 11 11 12 12
-4 -4 -4 -5 -7 -8 -8 -8 -8 -7 -6 -5 -4 -3 -3 -3 -1 2 4 5 5 6 7 8 8 8 8 9 11 12 12 11 11 10 10 10 9 9 10 10 11 11 11